Regional Weather Roundup
Issued by NWS Northern Indiana

Home | Current Version | Previous Version | Text Only | Print | Product List | Glossary On
Versions: 1 2 3 4 5 6 7 8 9 10 11 12 13 14 15 16 17 18 19 20 21 22 23 24 25 26 27 28 29 30 31 32 33 34 35 36 37 38 39 40 41 42 43 44 45 46 47 48 49 50
000
ASUS43 KIWX 210010
RWRIWX

KIWX WEATHER ROUNDUP
NATIONAL WEATHER SERVICE NORTHERN INDIANA
800 PM EDT SUN APR 20 2014

NOTE: "FAIR" INDICATES FEW OR NO CLOUDS BELOW 12,000 FEET WITH NO
SIGNIFICANT WEATHER AND/OR OBSTRUCTIONS TO VISIBILITY.

* THESE STATIONS ARE NOT UNDER NWS QUALITY CONTROL. THEY ALSO MAY NOT
  REPORT WEATHER SUCH AS PRECIPITATION OR FOG.

INZ001>027-210100-
NORTHERN INDIANA

CITY           SKY/WX    TMP DP  RH WIND       PRES   REMARKS
GARY*          PTCLDY    77  36  22 S7        30.07F
VALPARAISO     PTCLDY    71  35  26 S7        30.09F
6HR MIN TEMP:  70; 6HR MAX TEMP:  76;

MICHIGAN CITY* MOCLDY    72  32  23 S5        30.09S
LAPORTE*       PTCLDY    71  34  26 S5        30.10F
6HR MIN TEMP:  69; 6HR MAX TEMP:  74;

SOUTH BEND     PTCLDY    72  32  23 S9        30.11F
6HR MIN TEMP:  70; 6HR MAX TEMP:  75;

GOSHEN         PTCLDY    69  34  27 SW3       30.11F
6HR MIN TEMP:  68; 6HR MAX TEMP:  74;

MONTICELLO*    PTCLDY    72  37  27 E3        30.09F
6HR MIN TEMP:  69; 6HR MAX TEMP:  74;

LOGANSPORT*    PTCLDY    70  30  23 CALM      30.11S
ROCHESTER*     PTCLDY    72  30  21 CALM      30.11F
WARSAW*        PTCLDY    70  32  24 S3        30.11F
ANGOLA*        CLEAR     70  48  46 SW5       30.12F
FORT WAYNE     PTCLDY    68  34  28 SW5       30.12F
6HR MIN TEMP:  68; 6HR MAX TEMP:  75;

HUNTINGTON*    FAIR      69  35  28 CALM      30.11F
6HR MIN TEMP:  69; 6HR MAX TEMP:  73;

PERU/GRISSOM   CLEAR     72  35  25 CALM      30.10F
6HR MIN TEMP:  70; 6HR MAX TEMP:  76;

MARION*        CLEAR     69  34  27 S6        30.12F
6HR MIN TEMP:  69; 6HR MAX TEMP:  73;


$$
INZ028>050-210100-
CENTRAL INDIANA

CITY           SKY/WX    TMP DP  RH WIND       PRES   REMARKS
LAFAYETTE      CLEAR     72  34  24 S5        30.09F
6HR MIN TEMP:  70; 6HR MAX TEMP:  75;

KOKOMO*          N/A     70  36  28 S5        30.11S
6HR MIN TEMP:  70; 6HR MAX TEMP:  75;

MUNCIE*        PTCLDY    72  35  25 SW5       30.11F
6HR MIN TEMP:  70; 6HR MAX TEMP:  74;

INDIANAPOLIS   PTCLDY    71  34  25 CALM      30.10F
6HR MIN TEMP:  69; 6HR MAX TEMP:  75;


$$
MIZ043>046-050>051-056>058-064>065-071>073-077>080-210100-
SOUTHWEST LOWER MICHIGAN

CITY           SKY/WX    TMP DP  RH WIND       PRES   REMARKS
BATTLE CREEK   PTCLDY    68  30  24 SW8       30.12F
6HR MIN TEMP:  67; 6HR MAX TEMP:  72;

BENTON HARBOR  PTCLDY    68  38  33 W5        30.09F
6HR MIN TEMP:  68; 6HR MAX TEMP:  72;

COLDWATER*     PTCLDY    66  29  24 S3        30.12F
6HR MIN TEMP:  66; 6HR MAX TEMP:  71;

HILLSDALE*     PTCLDY    68  29  23 SW3       30.13F
HOLLAND        CLEAR     66  43  43 W6        30.10F
6HR MIN TEMP:  66; 6HR MAX TEMP:  74;

GRAND RAPIDS   PTCLDY    70  34  26 S6        30.09F
6HR MIN TEMP:  68; 6HR MAX TEMP:  74;

KALAMAZOO      PTCLDY    65  32  29 S7        30.11F
6HR MIN TEMP:  65; 6HR MAX TEMP:  73;

STURGIS*       PTCLDY    68  36  30 SW3       30.11F
THREE RIVERS*  FAIR      68  32  26 S5        30.11F
6HR MIN TEMP:  68; 6HR MAX TEMP:  73;


$$
OHZ001>008-015>018-024>025-210100-
NORTHWEST OHIO

CITY           SKY/WX    TMP DP  RH WIND       PRES   REMARKS
WAUSEON*       FAIR      68  34  28 S5        30.12F
DEFIANCE       PTCLDY    70  29  21 S3        30.12F
6HR MIN TEMP:  69; 6HR MAX TEMP:  74;

FINDLAY        PTCLDY    66  38  35 SW6       30.12F
6HR MIN TEMP:  66; 6HR MAX TEMP:  74;

TOLEDO EXPRESS PTCLDY    69  28  21 CALM      30.12F
6HR MIN TEMP:  67; 6HR MAX TEMP:  73;

TOLEDO METCALF PTCLDY    60  41  49 E9        30.14F
6HR MIN TEMP:  60; 6HR MAX TEMP:  72;

LIMA           PTCLDY    71  33  24 SW3       30.13F
6HR MIN TEMP:  69; 6HR MAX TEMP:  75;


$$
&&



USA.gov is the U.S. government's official web portal to all federal, state and local government web resources and services.